This is the latest recevied weather packets stored in our database for station/object WX4HP-13. If no packets are shown the sender has not sent any weather packets the latest 10 day(s).
| Time | Temp. | Humidity | Pressure | Rain* | Wind** | Luminosity | Snow |
|---|---|---|---|---|---|---|---|
| 1777768797 | 13.89° C | 51% | 1015.9 hPa | 0 mm | - | - | - |
| 1777768496 | 14.44° C | 48% | 1015.8 hPa | 0 mm | - | - | - |
| 1777768196 | 15° C | 46% | 1015.7 hPa | 0 mm | - | - | - |
| 1777767896 | 15° C | 45% | 1015.5 hPa | 0 mm | - | - | - |
| 1777767596 | 15.56° C | 44% | 1015.6 hPa | 0 mm | - | - | - |
| 1777767297 | 15.56° C | 44% | 1015.4 hPa | 0 mm | - | - | - |
| 1777766997 | 15.56° C | 46% | 1015.3 hPa | 0 mm | - | - | - |
| 1777766696 | 16.11° C | 46% | 1015.2 hPa | 0 mm | - | - | - |
| 1777766396 | 16.11° C | 42% | 1015 hPa | 0 mm | - | - | - |
| 1777766097 | 16.11° C | 40% | 1015 hPa | 0 mm | - | - | - |
| 1777765796 | 16.67° C | 39% | 1015 hPa | 0 mm | - | - | - |
| 1777765496 | 16.67° C | 39% | 1014.9 hPa | 0 mm | - | - | - |
| 1777765197 | 16.67° C | 39% | 1014.9 hPa | 0 mm | - | - | - |
| 1777764896 | 17.22° C | 38% | 1014.9 hPa | 0 mm | - | - | - |
| 1777764597 | 17.22° C | 39% | 1014.9 hPa | 0 mm | - | - | - |
| 1777764297 | 17.22° C | 39% | 1014.9 hPa | 0 mm | - | - | - |
| 1777763997 | 17.22° C | 37% | 1014.8 hPa | 0 mm | - | - | - |
| 1777763697 | 17.22° C | 36% | 1014.8 hPa | 0 mm | - | - | - |
| 1777763397 | 17.22° C | 37% | 1014.9 hPa | 0 mm | - | - | - |
| 1777763097 | 17.78° C | 37% | 1014.8 hPa | 0 mm | - | - | - |
| 1777762797 | 17.78° C | 37% | 1014.9 hPa | 0 mm | - | - | - |
| 1777762497 | 17.78° C | 37% | 1014.8 hPa | 0 mm | - | - | - |
| 1777762303 | 17.22° C | 36% | 1014.9 hPa | 0 mm | - | - | - |
| 1777762197 | 17.22° C | 36% | 1014.9 hPa | 0 mm | - | - | - |
| 1777761897 | 17.22° C | 36% | 1014.9 hPa | 0 mm | - | - | - |
* Rain latest hour (hover to see other rain measurements)
** Current wind speed in m/s (hover to see current wind gust speed)